Voltar ao catálogo

STARLINK-35745

AtivoComunicaçõesVLEO
NORAD 66271·PAYLOAD·🇺🇸 United States

Lançado Oct 31, 2025 de Vandenberg Space Force Base

Loading…

Próximas Passagens (próximas 24 horas)

TLE

AtualizadoSource: CelesTrak SupGP

Época: Sep 14, 2026, 20:47 UTC

1 66271C 25247G   26257.86645833  .00042508  00000+0  12561-2 0  2579
2 66271  53.1600  29.8620 0001199  71.3003  87.4857 15.34364832    19

Acompanhe STARLINK-35745 em tempo real com AllMySat

Download on the App Store